Weather History for Pine Ridge, SD

Change the Weather History Date:

Friday, February 15, 2013

  Actual Average Record
Temperature  
Mean Temperature 22 °F 26 °F  
Max Temperature 32 °F 40 °F 62 °F (2011)
Min Temperature 12 °F 13 °F -31 °F (2007)
Degree Days  
Heating Degree Days 43 39  
Month to date heating degree days 501 598  
Since 1 July heating degree days 4628 4875  
Cooling Degree Days 0 0  
Month to date cooling degree days 0 0  
Year to date cooling degree days 0 0  
Moisture  
Dew Point 12 °F    
Average Humidity 62    
Maximum Humidity 88    
Minimum Humidity 36    
Precipitation  
Precipitation T in 0.01 in 0.03 in (2014)
Month to date precipitation 0.03 0.26  
Year to date precipitation 0.76 0.58  
Sea Level Pressure  
Sea Level Pressure 30.38 in    
Wind  
Wind Speed 6 mph (West)    
Max Wind Speed 20 mph    
Max Gust Speed 26 mph    
Visibility 9 miles    
Events Snow    
T = Trace of Precipitation, MM = Missing Value Source: NWS Daily Summary

Daily Weather History Graph

Daily Weather History Graph

Search for Another Location

Airport:

Trip Planner

Search our weather history database for the weather conditions in past years. The results will help you decide how hot, cold, wet, or windy it might be!

Date:

Astronomy

Feb. 15, 2013 Rise Set
Actual Time 6:47 AM MST 5:21 PM MST
Civil Twilight 6:18 AM MST 5:50 PM MST
Nautical Twilight 5:44 AM MST 6:24 PM MST
Astronomical Twilight 5:12 AM MST 6:57 PM MST
Moon 9:14 AM MST 11:35 PM MST
Length of Visible Light 11h 32m
Length of Day
10h 34m
Waxing Crescent, 31% of the Moon is Illuminated
Feb 15
Waxing Crescent
Feb 17
First Quarter
Feb 25
Full
Mar 4
Last Quarter
Mar 11
New

Hourly Weather History & Observations

Time (MST) Temp. Windchill Dew Point Humidity Pressure Visibility Wind Dir Wind Speed Gust Speed Precip Events Conditions
12:52 AM 14.0 °F 5.1 °F 10.0 °F 84% 30.40 in 10.0 mi WSW 5.8 mph - N/A   Clear
1:52 AM 14.0 °F 8.2 °F 9.0 °F 80% 30.40 in 10.0 mi WSW 3.5 mph - N/A   Clear
2:52 AM 12.0 °F 4.1 °F 8.1 °F 84% 30.41 in 10.0 mi WSW 4.6 mph - N/A   Clear
3:52 AM 12.9 °F 5.2 °F 9.0 °F 84% 30.39 in 10.0 mi SW 4.6 mph - N/A   Clear
4:52 AM 15.1 °F - 9.0 °F 77% 30.40 in 10.0 mi Calm Calm - N/A   Clear
5:52 AM 15.1 °F 9.4 °F 10.0 °F 80% 30.40 in 10.0 mi SW 3.5 mph - N/A   Overcast
6:52 AM 17.1 °F - 12.0 °F 81% 30.42 in 10.0 mi Calm Calm - N/A   Overcast
7:14 AM 17.6 °F 12.3 °F 12.2 °F 79% 30.28 in 3.0 mi WSW 3.5 mph - 0.00 in Snow Light Snow
7:27 AM 17.6 °F - 12.2 °F 79% 30.29 in 6.0 mi Calm Calm - 0.00 in Snow Light Snow
7:52 AM 19.0 °F 12.3 °F 15.1 °F 85% 30.43 in 10.0 mi SSW 4.6 mph - 0.00 in   Overcast
8:52 AM 23.0 °F 18.4 °F 15.1 °F 72% 30.43 in 10.0 mi NNW 3.5 mph - N/A   Overcast
9:52 AM 24.1 °F 13.7 °F 14.0 °F 65% 30.45 in 10.0 mi NW 10.4 mph - N/A   Mostly Cloudy
10:52 AM 28.0 °F 19.3 °F 15.1 °F 58% 30.45 in 10.0 mi NNW 9.2 mph - N/A   Partly Cloudy
11:52 AM 28.9 °F 19.2 °F 12.9 °F 51% 30.45 in 10.0 mi NNW 11.5 mph 16.1 mph N/A   Mostly Cloudy
12:52 PM 28.9 °F 17.7 °F 8.1 °F 41% 30.43 in 10.0 mi North 15.0 mph 21.9 mph N/A   Mostly Cloudy
1:52 PM 30.0 °F 20.0 °F 8.1 °F 40% 30.43 in 10.0 mi NNW 12.7 mph 17.3 mph N/A   Overcast
2:52 PM 30.9 °F 21.7 °F 7.0 °F 37% 30.42 in 10.0 mi NW 11.5 mph - N/A   Mostly Cloudy
3:52 PM 32.0 °F 23.6 °F 8.1 °F 37% 30.41 in 10.0 mi North 10.4 mph 18.4 mph N/A   Partly Cloudy
4:52 PM 28.9 °F 23.9 °F 8.1 °F 41% 30.40 in 10.0 mi NNW 4.6 mph - N/A   Clear
6:52 PM 23.0 °F 18.4 °F 15.1 °F 72% 30.39 in 10.0 mi WSW 3.5 mph - N/A   Scattered Clouds
7:52 PM 19.0 °F - 12.9 °F 77% 30.37 in 7.0 mi Calm Calm - N/A   Clear
8:52 PM 21.0 °F 13.4 °F 16.0 °F 81% 30.33 in 10.0 mi SW 5.8 mph - N/A   Scattered Clouds
9:52 PM 24.1 °F 18.2 °F 19.0 °F 81% 30.29 in 10.0 mi WSW 4.6 mph - N/A   Overcast
10:52 PM 26.1 °F 18.4 °F 19.9 °F 78% 30.26 in 10.0 mi SW 6.9 mph - N/A   Overcast
11:52 PM 27.0 °F 20.5 °F 19.9 °F 75% 30.22 in 10.0 mi WSW 5.8 mph - N/A   Overcast